Regional Weather Roundup
Issued by NWS

Home | Current Version | Previous Version | Text Only | Print | Product List | Glossary On
Versions: 1 2 3 4 5 6 7 8 9 10 11 12 13 14 15 16 17 18 19 20 21 22 23 24 25 26 27 28 29 30 31 32 33 34 35 36 37 38 39 40 41 42 43 44 45 46 47 48 49 50
000
ASUS44 KMEG 202310
RWRTN
TENNESSEE HOURLY STATE WEATHER ROUNDUP
NATIONAL WEATHER SERVICE MEMPHIS TN
600 PM CDT MON OCT 20 2014

TNZ002-004-019-021-049-052-054-088>092-210000-
WEST TENNESSEE

CITY           SKY/WX    TMP DP  RH WIND       PRES   REMARKS
MEMPHIS INTL   PTCLDY    68  51  54 SW5       30.01R
NWS MEMPHIS      N/A     68 N/A N/A MISG        N/A
JACKSON        MOCLDY    65  52  62 SW6       30.00S
DYERSBURG      CLEAR     68  46  45 CALM      29.99S
UNION CITY     CLEAR     66  54  63 SW6       29.96S
PARIS          CLEAR     64  52  63 SW5       29.98R
HUNTINGDON     CLEAR     64  51  62 SW3       29.99R
LEXINGTON      CLEAR     64  52  63 SW6       29.99S
SAVANNAH       CLEAR     64  52  63 CALM      30.01S
$$

TNZ008-025-027-028-033-062-065-066-210000-
NORTH MIDDLE TENNESSEE

CITY           SKY/WX    TMP DP  RH WIND       PRES   REMARKS
NASHVILLE      CLEAR     63  49  60 SW5       29.99R
CLARKSVILLE    CLEAR     65  52  62 SW7       29.96R
SMYRNA         CLEAR     62  48  60 SW6       30.00S
COOKEVILLE     CLEAR     61  48  63 CALM      29.99R
CROSSVILLE     PTCLDY    59  46  62 SW3       30.01S
$$

TNZ061-075-076-078-094-096-097-210000-
SOUTH MIDDLE TENNESSEE

CITY           SKY/WX    TMP DP  RH WIND       PRES   REMARKS
FAYETTEVILLE   CLEAR     61  48  63 SW17G45   30.01S
TULLAHOMA      CLEAR     59  48  67 SW5       30.01S
WINCHESTER     CLEAR     63  50  63 CALM      30.01S
MCMINNVILLE    CLEAR     61  52  72 CALM      30.00S
COLUMBIA       CLEAR     63  52  67 CALM      29.98S
SHELBYVILLE    CLEAR     64  52  63 SW3       30.01S
$$

TNZ017-018-042-046-047-210000-
NORTHEAST TENNESSEE

CITY           SKY/WX    TMP DP  RH WIND       PRES   REMARKS
TRI CITIES     CLOUDY    60  49  66 W3        29.98R
ELIZABETHTON   MOCLDY    55  50  82 CALM      29.98S
$$

TNZ012-013-036-069-073-074-210000-
CENTRAL EAST TENNESSEE

CITY           SKY/WX    TMP DP  RH WIND       PRES   REMARKS
KNOXVILLE      CLOUDY    62  51  67 W5        29.98R
OAK RIDGE      CLOUDY    64  52  64 CALM      29.99S
GATLINBURG     PTCLDY    63  50  63 CALM      29.98R
MORRISTOWN     MOCLDY    61  52  72 W3        29.99S
$$

TNZ083-085-099-210000-
SOUTHEAST TENNESSEE

CITY           SKY/WX    TMP DP  RH WIND       PRES   REMARKS
CHATTANOOGA    MOCLDY    63  54  72 NW6       30.00R
$$

SKY/WX REPORTED AS FAIR MEANS FEW OR NO CLOUDS BELOW
12 THOUSAND FEET.




USA.gov is the U.S. government's official web portal to all federal, state and local government web resources and services.